This demonstration page uses our WeatherBlox Daily Observations layout. Learn more.

Left ArrowRight Arrow

39.92423, -83.80882

Hourly Observations for June 22, 2018

Temp ( °F °C ) Dew Point ( °F °C ) Humidity (%) Winds ( mph kmh ) Pressure ( in mb ) Visibility ( mi km ) Precip ( " mm )
12:20 am 00:20 Cloudy 70 21 68 20 94 94 E 8 13 29.74 1007 10 16.0934 N/A
12:56 am 00:56 Cloudy 69 20.6 68 20 96 96 E 7 11 29.75 1007 7 11.26538 N/A
1:26 am 01:26 Cloudy with Mist and Fog 68 20 68 20 100 100 E 8 13 29.71 1006 5 8.0467 N/A
1:56 am 01:56 Cloudy 68 20 68 20 100 100 E 9 15 29.74 1007 7 11.26538 N/A
2:56 am 02:56 Cloudy with Mist and Fog 68 20 68 20 100 100 E 8 13 29.71 1006 5 8.0467 N/A
3:43 am 03:43 Cloudy with Mist and Fog 68 20 68 20 100 100 E 8 13 29.68 1005 6 9.65604 N/A
3:56 am 03:56 Cloudy 69 20.6 68 20 96 96 ESE 6 9 29.71 1006 9 14.48406 N/A
4:56 am 04:56 Cloudy 69 20.6 68 20 96 96 E 3 6 29.71 1006 10 16.0934 N/A
5:56 am 05:56 Cloudy with Mist and Fog 69 20.6 69 20.6 100 100 E 5 7 29.72 1007 6 9.65604 N/A
6:41 am 06:41 Cloudy with Light Rain 70 21 70 21 100 100 E 6 9 29.71 1006 2.5 4.02335 N/A
6:54 am 06:54 Cloudy with Light Rain 70 21 70 21 100 100 E 8 13 29.68 1005 2 3.21868 N/A
6:56 am 06:56 Cloudy with Light Rain 69 20.6 69 20.6 100 100 E 8 13 29.71 1006 2.5 4.02335 N/A
7:34 am 07:34 Cloudy with Mist and Fog 70 21 70 21 100 100 SSE 5 7 29.71 1006 3 4.82802 N/A
7:56 am 07:56 Cloudy with Mist and Fog 70 21.1 70 21.1 100 100 SSE 6 9 29.72 1007 4 6.43736 N/A
8:34 am 08:34 Mostly Cloudy 72 22 70 21 94 94 S 6 9 29.71 1006 7 11.26538 N/A
8:56 am 08:56 Mostly Cloudy 72 22.2 70 21.1 94 94 undefined N/A 29.73 1007 10 16.0934 N/A
9:37 am 09:37 Cloudy 72 22 70 21 94 94 SSE 6 9 29.71 1006 10 16.0934 N/A
9:56 am 09:56 Cloudy 72 22.2 70 21.1 94 94 SSE 6 9 29.74 1007 10 16.0934 N/A
10:03 am 10:03 Cloudy 72 22 70 21 94 94 SSE 5 7 29.71 1006 10 16.0934 N/A
10:30 am 10:30 Mostly Cloudy 73 23 70 21 89 89 S 8 13 29.68 1005 10 16.0934 N/A
10:56 am 10:56 Mostly Cloudy 76 24.4 70 21.1 82 82 SSW 8 13 29.72 1007 10 16.0934 N/A
11:05 am 11:05 Partly Cloudy 75 24 70 21 83 83 SSW 8 13 29.68 1005 10 16.0934 N/A
11:56 am 11:56 Mostly Sunny 77 25 69 20.6 77 77 SW 12 19 29.71 1006 10 16.0934 N/A
12:33 pm 12:33 Mostly Cloudy 79 26 70 21 74 74 S 9 15 29.68 1005 10 16.0934 N/A
12:44 pm 12:44 Mostly Cloudy 79 26 68 20 70 70 SSW 8 13 29.68 1005 10 16.0934 N/A
12:56 pm 12:56 Mostly Sunny 79 26.1 69 20.6 72 72 SSW 8 13 29.71 1006 10 16.0934 N/A
1:29 pm 13:29 Mostly Cloudy 79 26 68 20 70 70 SSW 9 15 29.65 1004 10 16.0934 N/A
1:36 pm 13:36 Partly Cloudy 79 26 68 20 70 70 SSW 8 13 29.65 1004 10 16.0934 N/A
1:56 pm 13:56 Sunny 80 26.7 68 20 67 67 VRB 6 9 29.69 1006 10 16.0934 N/A
2:18 pm 14:18 Partly Cloudy with Nearby Thunderstorms 81 27 70 21 70 70 SW 12 19 29.65 1004 10 16.0934 N/A
2:33 pm 14:33 Mostly Cloudy 81 27 70 21 70 70 WSW 18 30 29.65 1004 10 16.0934 N/A
2:56 pm 14:56 Cloudy 78 25.6 68 20 71 71 WSW 9 15 29.69 1005 10 16.0934 N/A
3:56 pm 15:56 Partly Cloudy 78 25.6 66 18.9 67 67 WSW 12 19 29.69 1005 10 16.0934 N/A
4:56 pm 16:56 Cloudy 75 23.9 67 19.4 76 76 WSW 6 9 29.7 1006 10 16.0934 N/A
5:56 pm 17:56 Sunny 77 25 64 17.8 64 64 SSE 8 13 29.66 1005 10 16.0934 N/A
6:56 pm 18:56 Sunny 75 23.9 65 18.3 71 71 SSE 5 7 29.66 1005 10 16.0934 N/A
7:56 pm 19:56 Partly Cloudy with Light Rain 73 22.8 67 19.4 81 81 SSE 5 7 29.66 1005 10 16.0934 N/A
8:56 pm 20:56 Cloudy 72 22.2 68 20 87 87 SSE 5 7 29.67 1005 10 16.0934 0.01 0.254
9:10 pm 21:10 Cloudy with Light Rain 72 22 68 20 88 88 SSE 5 7 29.62 1003 10 16.0934 N/A
9:56 pm 21:56 Cloudy 71 21.7 68 20 90 90 SSE 6 9 29.68 1005 10 16.0934 N/A
10:34 pm 22:34 Cloudy 70 21 68 20 94 94 S 3 6 29.68 1005 10 16.0934 N/A
10:47 pm 22:47 Mostly Cloudy 70 21 66 19 88 88 SSW 6 9 29.68 1005 10 16.0934 N/A
10:52 pm 22:52 Mostly Cloudy 70 21 66 19 88 88 S 5 7 29.68 1005 10 16.0934 N/A
10:56 pm 22:56 Mostly Cloudy 69 20.6 67 19.4 93 93 S 6 9 29.68 1005 10 16.0934 N/A
11:56 pm 23:56 Partly Cloudy 68 20 66 18.9 93 93 S 5 7 29.69 1005 10 16.0934 N/A

Powered by AerisWeather